Location: Pilipovskiye Korichintsy
(49.1833°N, 27.4667°E)
Time: 12:47:06
(UTC+00:00)

Cosmos 2221 Rocket - Pass Details

Date: 14 July 2020
Orbit: 619 x 649 km, 82.5° (Epoch: 07 August)

Event Time Altitude Azimuth Distance (km) Brightness Sun altitude
Rises 00:31:52 0° 346° (NNW) 2,914 7.7 -13.0°
Reaches altitude 10° 00:34:08 10° 343° (NNW) 2,001 6.8 -12.8°
Maximum altitude 00:38:28 57° 265° (W) 731 3.7 -12.4°
Enters shadow 00:41:59 15° 189° (S) 1,676 5.2 -12.1°
